owner,sensor,date,latitude,longitude,vertical_datum,wind_speed,wind_to_direction,wind_speed_of_gust,qcFlag 
COMPS,ioos:station:USF.COMPS:SHP:1,2017-04-01T00:00:00Z,30.0600,-84.2910,10.0,9.03,238.06,10.48,'1111122,1111122,1111122' 
COMPS,ioos:station:USF.COMPS:SHP:1,2017-04-01T00:06:00Z,30.0600,-84.2910,10.0,8.38,238.94,10.09,'1111122,1111122,1111122' 
COMPS,ioos:station:USF.COMPS:SHP:1,2017-04-01T00:12:00Z,30.0600,-84.2910,10.0,7.88,245.23,9.89,'1111122,1111122,1111122' 
COMPS,ioos:station:USF.COMPS:SHP:1,2017-04-01T00:18:00Z,30.0600,-84.2910,10.0,6.91,247.92,8.72,'1111122,1111122,1111122' 
COMPS,ioos:station:USF.COMPS:SHP:1,2017-04-01T00:24:00Z,30.0600,-84.2910,10.0,6.6,254.2,7.54,'1111122,1111122,1111122' 
COMPS,ioos:station:USF.COMPS:SHP:1,2017-04-01T00:30:00Z,30.0600,-84.2910,10.0,5.77,252.64,6.76,'1111122,1111122,1111122' 
COMPS,ioos:station:USF.COMPS:SHP:1,2017-04-01T00:36:00Z,30.0600,-84.2910,10.0,5.27,263.26,6.56,'1111122,1111122,1111122' 
COMPS,ioos:station:USF.COMPS:SHP:1,2017-04-01T00:42:00Z,30.0600,-84.2910,10.0,5.76,265.35,6.85,'1111122,1111122,1111122' 
COMPS,ioos:station:USF.COMPS:SHP:1,2017-04-01T00:48:00Z,30.0600,-84.2910,10.0,5.63,267.4,7.35,'1111122,1111122,1111122' 
COMPS,ioos:station:USF.COMPS:SHP:1,2017-04-01T00:54:00Z,30.0600,-84.2910,10.0,5.77,269.83,6.95,'1111122,1111122,1111122' 
COMPS,ioos:station:USF.COMPS:SHP:1,2017-04-01T01:00:00Z,30.0600,-84.2910,10.0,5.28,273.56,7.15,'1111122,1111122,1111122' 
COMPS,ioos:station:USF.COMPS:SHP:1,2017-04-01T01:06:00Z,30.0600,-84.2910,10.0,4.9,283.65,6.95,'1111122,1111122,1111122' 
COMPS,ioos:station:USF.COMPS:SHP:1,2017-04-01T01:12:00Z,30.0600,-84.2910,10.0,4.81,277.81,6.46,'1111122,1111122,1111122' 
COMPS,ioos:station:USF.COMPS:SHP:1,2017-04-01T01:18:00Z,30.0600,-84.2910,10.0,4.2,287.15,5.87,'1111122,1111122,1111122' 
COMPS,ioos:station:USF.COMPS:SHP:1,2017-04-01T01:24:00Z,30.0600,-84.2910,10.0,4.53,282.78,6.07,'1111122,1111122,1111122' 
COMPS,ioos:station:USF.COMPS:SHP:1,2017-04-01T01:30:00Z,30.0600,-84.2910,10.0,4.06,287.72,5.97,'1111122,1111122,1111122' 
COMPS,ioos:station:USF.COMPS:SHP:1,2017-04-01T01:36:00Z,30.0600,-84.2910,10.0,3.86,285.99,5.87,'1111122,1111122,1111122' 
COMPS,ioos:station:USF.COMPS:SHP:1,2017-04-01T01:42:00Z,30.0600,-84.2910,10.0,4.07,284.69,7.05,'1111122,1111122,1111122' 
COMPS,ioos:station:USF.COMPS:SHP:1,2017-04-01T01:48:00Z,30.0600,-84.2910,10.0,4.11,287.74,5.97,'1111122,1111122,1111122' 
COMPS,ioos:station:USF.COMPS:SHP:1,2017-04-01T01:54:00Z,30.0600,-84.2910,10.0,3.73,283.26,6.07,'1111122,1111122,1111122' 
COMPS,ioos:station:USF.COMPS:SHP:1,2017-04-01T02:00:00Z,30.0600,-84.2910,10.0,3.64,285.87,5.09,'1111122,1111122,1111122' 
COMPS,ioos:station:USF.COMPS:SHP:1,2017-04-01T02:06:00Z,30.0600,-84.2910,10.0,3.95,280.39,5.29,'1111122,1111122,1111122' 
COMPS,ioos:station:USF.COMPS:SHP:1,2017-04-01T02:12:00Z,30.0600,-84.2910,10.0,4.24,290.85,6.27,'1111122,1111122,1111122' 
COMPS,ioos:station:USF.COMPS:SHP:1,2017-04-01T02:18:00Z,30.0600,-84.2910,10.0,3.86,295.65,5.48,'1111122,1111122,1111122' 
COMPS,ioos:station:USF.COMPS:SHP:1,2017-04-01T02:24:00Z,30.0600,-84.2910,10.0,3.81,292.87,5.58,'1111122,1111122,1111122' 
COMPS,ioos:station:USF.COMPS:SHP:1,2017-04-01T02:30:00Z,30.0600,-84.2910,10.0,3.67,290.44,5.29,'1111122,1111122,1111122' 
COMPS,ioos:station:USF.COMPS:SHP:1,2017-04-01T02:36:00Z,30.0600,-84.2910,10.0,3.6,295.26,5.39,'1111122,1111122,1111122' 
COMPS,ioos:station:USF.COMPS:SHP:1,2017-04-01T02:42:00Z,30.0600,-84.2910,10.0,3.75,292.17,5.58,'1111122,1111122,1111122' 
COMPS,ioos:station:USF.COMPS:SHP:1,2017-04-01T02:48:00Z,30.0600,-84.2910,10.0,3.8,293.51,5.87,'1111122,1111122,1111122' 
COMPS,ioos:station:USF.COMPS:SHP:1,2017-04-01T02:54:00Z,30.0600,-84.2910,10.0,3.77,287.64,5.87,'1111122,1111122,1111122' 
COMPS,ioos:station:USF.COMPS:SHP:1,2017-04-01T03:00:00Z,30.0600,-84.2910,10.0,3.52,280.91,5.68,'1111122,1111122,1111122' 
COMPS,ioos:station:USF.COMPS:SHP:1,2017-04-01T03:06:00Z,30.0600,-84.2910,10.0,4.23,283.57,5.68,'1111122,1111122,1111122' 
COMPS,ioos:station:USF.COMPS:SHP:1,2017-04-01T03:12:00Z,30.0600,-84.2910,10.0,3.43,283.15,4.99,'1111122,1111122,1111122' 
COMPS,ioos:station:USF.COMPS:SHP:1,2017-04-01T03:18:00Z,30.0600,-84.2910,10.0,4.15,281.59,5.19,'1111122,1111122,1111122' 
COMPS,ioos:station:USF.COMPS:SHP:1,2017-04-01T03:24:00Z,30.0600,-84.2910,10.0,4.11,281.46,6.37,'1111122,1111122,1111122' 
COMPS,ioos:station:USF.COMPS:SHP:1,2017-04-01T03:30:00Z,30.0600,-84.2910,10.0,4.32,284.02,6.07,'1111122,1111122,1111122' 
COMPS,ioos:station:USF.COMPS:SHP:1,2017-04-01T03:36:00Z,30.0600,-84.2910,10.0,3.9,293.86,5.68,'1111122,1111122,1111122' 
COMPS,ioos:station:USF.COMPS:SHP:1,2017-04-01T03:42:00Z,30.0600,-84.2910,10.0,3.28,283.0,4.6,'1111122,1111122,1111122' 
COMPS,ioos:station:USF.COMPS:SHP:1,2017-04-01T03:48:00Z,30.0600,-84.2910,10.0,3.44,288.02,5.78,'1111122,1111122,1111122' 
COMPS,ioos:station:USF.COMPS:SHP:1,2017-04-01T03:54:00Z,30.0600,-84.2910,10.0,4.01,287.06,6.07,'1111122,1111122,1111122' 
COMPS,ioos:station:USF.COMPS:SHP:1,2017-04-01T04:00:00Z,30.0600,-84.2910,10.0,3.55,279.55,4.7,'1111122,1111122,1111122' 
COMPS,ioos:station:USF.COMPS:SHP:1,2017-04-01T04:06:00Z,30.0600,-84.2910,10.0,3.19,284.18,4.6,'1111122,1111122,1111122' 
COMPS,ioos:station:USF.COMPS:SHP:1,2017-04-01T04:12:00Z,30.0600,-84.2910,10.0,3.34,280.42,5.19,'1111122,1111122,1111122' 
COMPS,ioos:station:USF.COMPS:SHP:1,2017-04-01T04:18:00Z,30.0600,-84.2910,10.0,3.46,282.96,4.6,'1111122,1111122,1111122' 
COMPS,ioos:station:USF.COMPS:SHP:1,2017-04-01T04:24:00Z,30.0600,-84.2910,10.0,3.48,295.38,5.39,'1111122,1111122,1111122' 
COMPS,ioos:station:USF.COMPS:SHP:1,2017-04-01T04:30:00Z,30.0600,-84.2910,10.0,3.4,288.24,5.48,'1111122,1111122,1111122' 
COMPS,ioos:station:USF.COMPS:SHP:1,2017-04-01T04:36:00Z,30.0600,-84.2910,10.0,3.74,283.63,5.58,'1111122,1111122,1111122' 
COMPS,ioos:station:USF.COMPS:SHP:1,2017-04-01T04:42:00Z,30.0600,-84.2910,10.0,3.59,284.03,4.8,'1111122,1111122,1111122' 
COMPS,ioos:station:USF.COMPS:SHP:1,2017-04-01T04:48:00Z,30.0600,-84.2910,10.0,3.01,290.81,4.41,'1111122,1111122,1111122' 
COMPS,ioos:station:USF.COMPS:SHP:1,2017-04-01T04:54:00Z,30.0600,-84.2910,10.0,3.11,285.44,4.9,'1111122,1111122,1111122' 
COMPS,ioos:station:USF.COMPS:SHP:1,2017-04-01T05:00:00Z,30.0600,-84.2910,10.0,3.21,286.95,4.6,'1111122,1111122,1111122' 
COMPS,ioos:station:USF.COMPS:SHP:1,2017-04-01T05:06:00Z,30.0600,-84.2910,10.0,2.89,296.51,4.01,'1111122,1111122,1111122' 
COMPS,ioos:station:USF.COMPS:SHP:1,2017-04-01T05:12:00Z,30.0600,-84.2910,10.0,2.46,307.92,3.82,'1111122,1111122,1111122' 
COMPS,ioos:station:USF.COMPS:SHP:1,2017-04-01T05:18:00Z,30.0600,-84.2910,10.0,2.86,315.16,4.11,'1111122,1111122,1111122' 
COMPS,ioos:station:USF.COMPS:SHP:1,2017-04-01T05:24:00Z,30.0600,-84.2910,10.0,2.49,314.67,3.23,'1111122,1111122,1111122' 
COMPS,ioos:station:USF.COMPS:SHP:1,2017-04-01T05:30:00Z,30.0600,-84.2910,10.0,2.64,309.59,3.92,'1111122,1111122,1111122' 
COMPS,ioos:station:USF.COMPS:SHP:1,2017-04-01T05:36:00Z,30.0600,-84.2910,10.0,2.24,309.34,3.23,'1111122,1111122,1111122' 
COMPS,ioos:station:USF.COMPS:SHP:1,2017-04-01T05:42:00Z,30.0600,-84.2910,10.0,2.06,311.76,3.33,'1111122,1111122,1111122' 
COMPS,ioos:station:USF.COMPS:SHP:1,2017-04-01T05:48:00Z,30.0600,-84.2910,10.0,1.97,311.26,2.94,'1111122,1111122,1111122' 
COMPS,ioos:station:USF.COMPS:SHP:1,2017-04-01T05:54:00Z,30.0600,-84.2910,10.0,1.85,316.68,3.03,'1111122,1111122,1111122' 
COMPS,ioos:station:USF.COMPS:SHP:1,2017-04-01T06:00:00Z,30.0600,-84.2910,10.0,2.02,313.41,4.01,'1111122,1111122,1111122' 
COMPS,ioos:station:USF.COMPS:SHP:1,2017-04-01T06:06:00Z,30.0600,-84.2910,10.0,2.17,314.69,3.52,'1111122,1111122,1111122' 
COMPS,ioos:station:USF.COMPS:SHP:1,2017-04-01T06:12:00Z,30.0600,-84.2910,10.0,1.73,318.58,2.54,'1111122,1111122,1111122' 
COMPS,ioos:station:USF.COMPS:SHP:1,2017-04-01T06:18:00Z,30.0600,-84.2910,10.0,1.31,317.7,2.05,'1111122,1111122,1111122' 
COMPS,ioos:station:USF.COMPS:SHP:1,2017-04-01T06:24:00Z,30.0600,-84.2910,10.0,1.24,318.88,2.64,'1111122,1111122,1111122' 
COMPS,ioos:station:USF.COMPS:SHP:1,2017-04-01T06:30:00Z,30.0600,-84.2910,10.0,1.35,312.38,2.35,'1111122,1111122,1111122' 
COMPS,ioos:station:USF.COMPS:SHP:1,2017-04-01T06:36:00Z,30.0600,-84.2910,10.0,1.26,301.15,2.45,'1111122,1111122,1111122' 
COMPS,ioos:station:USF.COMPS:SHP:1,2017-04-01T06:42:00Z,30.0600,-84.2910,10.0,1.61,301.34,2.35,'1111122,1111122,1111122' 
COMPS,ioos:station:USF.COMPS:SHP:1,2017-04-01T06:48:00Z,30.0600,-84.2910,10.0,2.31,288.6,3.72,'1111122,1111122,1111122' 
COMPS,ioos:station:USF.COMPS:SHP:1,2017-04-01T06:54:00Z,30.0600,-84.2910,10.0,2.19,296.95,3.82,'1111122,1111122,1111122' 
COMPS,ioos:station:USF.COMPS:SHP:1,2017-04-01T07:00:00Z,30.0600,-84.2910,10.0,1.92,291.39,3.13,'1111122,1111122,1111122' 
COMPS,ioos:station:USF.COMPS:SHP:1,2017-04-01T07:06:00Z,30.0600,-84.2910,10.0,2.39,291.02,3.62,'1111122,1111122,1111122' 
COMPS,ioos:station:USF.COMPS:SHP:1,2017-04-01T07:12:00Z,30.0600,-84.2910,10.0,1.99,294.24,3.33,'1111122,1111122,1111122' 
COMPS,ioos:station:USF.COMPS:SHP:1,2017-04-01T07:18:00Z,30.0600,-84.2910,10.0,2.27,304.75,3.23,'1111122,1111122,1111122' 
COMPS,ioos:station:USF.COMPS:SHP:1,2017-04-01T07:24:00Z,30.0600,-84.2910,10.0,2.12,307.97,3.23,'1111122,1111122,1111122' 
COMPS,ioos:station:USF.COMPS:SHP:1,2017-04-01T07:30:00Z,30.0600,-84.2910,10.0,2.0,304.31,3.13,'1111122,1111122,1111122' 
COMPS,ioos:station:USF.COMPS:SHP:1,2017-04-01T07:36:00Z,30.0600,-84.2910,10.0,2.03,305.85,2.94,'1111122,1111122,1111122' 
COMPS,ioos:station:USF.COMPS:SHP:1,2017-04-01T07:42:00Z,30.0600,-84.2910,10.0,1.75,312.71,2.15,'1111122,1111122,1111122' 
COMPS,ioos:station:USF.COMPS:SHP:1,2017-04-01T07:48:00Z,30.0600,-84.2910,10.0,1.47,304.9,2.05,'1111122,1111122,1111122' 
COMPS,ioos:station:USF.COMPS:SHP:1,2017-04-01T07:54:00Z,30.0600,-84.2910,10.0,2.31,294.57,3.13,'1111122,1111122,1111122' 
COMPS,ioos:station:USF.COMPS:SHP:1,2017-04-01T08:00:00Z,30.0600,-84.2910,10.0,1.98,295.0,2.84,'1111122,1111122,1111122' 
COMPS,ioos:station:USF.COMPS:SHP:1,2017-04-01T08:06:00Z,30.0600,-84.2910,10.0,2.17,285.04,2.94,'1111122,1111122,1111122' 
COMPS,ioos:station:USF.COMPS:SHP:1,2017-04-01T08:12:00Z,30.0600,-84.2910,10.0,2.14,285.12,2.84,'1111122,1111122,1111122' 
COMPS,ioos:station:USF.COMPS:SHP:1,2017-04-01T08:18:00Z,30.0600,-84.2910,10.0,2.08,289.36,2.84,'1111122,1111122,1111122' 
COMPS,ioos:station:USF.COMPS:SHP:1,2017-04-01T08:24:00Z,30.0600,-84.2910,10.0,2.2,293.92,3.23,'1111122,1111122,1111122' 
COMPS,ioos:station:USF.COMPS:SHP:1,2017-04-01T08:30:00Z,30.0600,-84.2910,10.0,2.16,302.85,3.13,'1111122,1111122,1111122' 
COMPS,ioos:station:USF.COMPS:SHP:1,2017-04-01T08:36:00Z,30.0600,-84.2910,10.0,1.99,300.41,2.84,'1111122,1111122,1111122' 
COMPS,ioos:station:USF.COMPS:SHP:1,2017-04-01T08:42:00Z,30.0600,-84.2910,10.0,1.92,312.45,2.54,'1111122,1111122,1111122' 
COMPS,ioos:station:USF.COMPS:SHP:1,2017-04-01T08:48:00Z,30.0600,-84.2910,10.0,1.91,313.78,2.84,'1111122,1111122,1111122' 
COMPS,ioos:station:USF.COMPS:SHP:1,2017-04-01T08:54:00Z,30.0600,-84.2910,10.0,1.61,314.14,2.15,'1111122,1111122,1111122' 
COMPS,ioos:station:USF.COMPS:SHP:1,2017-04-01T09:00:00Z,30.0600,-84.2910,10.0,1.45,317.71,2.05,'1111122,1111122,1111122' 
COMPS,ioos:station:USF.COMPS:SHP:1,2017-04-01T09:06:00Z,30.0600,-84.2910,10.0,1.65,320.57,2.25,'1111122,1111122,1111122' 
COMPS,ioos:station:USF.COMPS:SHP:1,2017-04-01T09:12:00Z,30.0600,-84.2910,10.0,1.67,319.24,2.15,'1111122,1111122,1111122' 
COMPS,ioos:station:USF.COMPS:SHP:1,2017-04-01T09:18:00Z,30.0600,-84.2910,10.0,1.54,311.07,2.05,'1111122,1111122,1111122' 
COMPS,ioos:station:USF.COMPS:SHP:1,2017-04-01T09:24:00Z,30.0600,-84.2910,10.0,1.77,319.2,2.35,'1111122,1111122,1111122' 
COMPS,ioos:station:USF.COMPS:SHP:1,2017-04-01T09:30:00Z,30.0600,-84.2910,10.0,1.58,319.87,2.15,'1111122,1111122,1111122' 
COMPS,ioos:station:USF.COMPS:SHP:1,2017-04-01T09:36:00Z,30.0600,-84.2910,10.0,1.42,319.03,2.25,'1111122,1111122,1111122' 
COMPS,ioos:station:USF.COMPS:SHP:1,2017-04-01T09:42:00Z,30.0600,-84.2910,10.0,1.51,321.3,2.05,'1111122,1111122,1111122' 
COMPS,ioos:station:USF.COMPS:SHP:1,2017-04-01T09:48:00Z,30.0600,-84.2910,10.0,1.71,318.4,2.64,'1111122,1111122,1111122' 
COMPS,ioos:station:USF.COMPS:SHP:1,2017-04-01T09:54:00Z,30.0600,-84.2910,10.0,1.43,322.08,2.15,'1111122,1111122,1111122' 
COMPS,ioos:station:USF.COMPS:SHP:1,2017-04-01T10:00:00Z,30.0600,-84.2910,10.0,1.36,331.24,1.76,'1111122,1111122,1111122' 
COMPS,ioos:station:USF.COMPS:SHP:1,2017-04-01T10:06:00Z,30.0600,-84.2910,10.0,1.33,328.68,1.76,'1111122,1111122,1111122' 
COMPS,ioos:station:USF.COMPS:SHP:1,2017-04-01T10:12:00Z,30.0600,-84.2910,10.0,1.5,325.75,2.35,'1111122,1111122,1111122' 
COMPS,ioos:station:USF.COMPS:SHP:1,2017-04-01T10:18:00Z,30.0600,-84.2910,10.0,1.2,325.01,1.66,'1111122,1111122,1111122' 
COMPS,ioos:station:USF.COMPS:SHP:1,2017-04-01T10:24:00Z,30.0600,-84.2910,10.0,0.93,329.69,1.47,'1111122,1111122,1111122' 
COMPS,ioos:station:USF.COMPS:SHP:1,2017-04-01T10:30:00Z,30.0600,-84.2910,10.0,0.38,347.67,1.07,'1111122,1111122,1111122' 
COMPS,ioos:station:USF.COMPS:SHP:1,2017-04-01T10:36:00Z,30.0600,-84.2910,10.0,0.11,310.79,0.19,'1111122,1111122,1111122' 
COMPS,ioos:station:USF.COMPS:SHP:1,2017-04-01T10:42:00Z,30.0600,-84.2910,10.0,0.09,241.32,0.09,'1111122,1111122,1111122' 
COMPS,ioos:station:USF.COMPS:SHP:1,2017-04-01T10:48:00Z,30.0600,-84.2910,10.0,0.09,218.3,0.09,'1111122,1111122,1111122' 
COMPS,ioos:station:USF.COMPS:SHP:1,2017-04-01T10:54:00Z,30.0600,-84.2910,10.0,0.18,302.15,0.49,'1111122,1111122,1111122' 
COMPS,ioos:station:USF.COMPS:SHP:1,2017-04-01T11:00:00Z,30.0600,-84.2910,10.0,0.52,300.43,0.78,'1111122,1111122,1111122' 
COMPS,ioos:station:USF.COMPS:SHP:1,2017-04-01T11:06:00Z,30.0600,-84.2910,10.0,0.47,326.82,0.88,'1111122,1111122,1111122' 
COMPS,ioos:station:USF.COMPS:SHP:1,2017-04-01T11:12:00Z,30.0600,-84.2910,10.0,1.02,344.26,1.37,'1111122,1111122,1111122' 
COMPS,ioos:station:USF.COMPS:SHP:1,2017-04-01T11:18:00Z,30.0600,-84.2910,10.0,0.93,340.73,1.56,'1111122,1111122,1111122' 
COMPS,ioos:station:USF.COMPS:SHP:1,2017-04-01T11:24:00Z,30.0600,-84.2910,10.0,0.8,337.92,1.07,'1111122,1111122,1111122' 
COMPS,ioos:station:USF.COMPS:SHP:1,2017-04-01T11:30:00Z,30.0600,-84.2910,10.0,1.01,339.23,1.47,'1111122,1111122,1111122' 
COMPS,ioos:station:USF.COMPS:SHP:1,2017-04-01T11:36:00Z,30.0600,-84.2910,10.0,0.85,342.08,1.07,'1111122,1111122,1111122' 
COMPS,ioos:station:USF.COMPS:SHP:1,2017-04-01T11:42:00Z,30.0600,-84.2910,10.0,0.46,333.32,0.78,'1111122,1111122,1111122' 
COMPS,ioos:station:USF.COMPS:SHP:1,2017-04-01T11:48:00Z,30.0600,-84.2910,10.0,0.57,321.71,0.88,'1111122,1111122,1111122' 
COMPS,ioos:station:USF.COMPS:SHP:1,2017-04-01T11:54:00Z,30.0600,-84.2910,10.0,0.84,341.36,1.17,'1111122,1111122,1111122' 
COMPS,ioos:station:USF.COMPS:SHP:1,2017-04-01T12:00:00Z,30.0600,-84.2910,10.0,0.81,351.08,1.47,'1111122,1111122,1111122' 
COMPS,ioos:station:USF.COMPS:SHP:1,2017-04-01T12:06:00Z,30.0600,-84.2910,10.0,1.27,1.97,1.76,'1111122,1111122,1111122' 
COMPS,ioos:station:USF.COMPS:SHP:1,2017-04-01T12:12:00Z,30.0600,-84.2910,10.0,1.09,1.77,1.96,'1111122,1111122,1111122' 
COMPS,ioos:station:USF.COMPS:SHP:1,2017-04-01T12:18:00Z,30.0600,-84.2910,10.0,1.12,3.26,1.66,'1111122,1111122,1111122' 
COMPS,ioos:station:USF.COMPS:SHP:1,2017-04-01T12:24:00Z,30.0600,-84.2910,10.0,1.16,8.19,1.66,'1111122,1111122,1111122' 
COMPS,ioos:station:USF.COMPS:SHP:1,2017-04-01T12:30:00Z,30.0600,-84.2910,10.0,1.27,11.57,1.76,'1111122,1111122,1111122' 
COMPS,ioos:station:USF.COMPS:SHP:1,2017-04-01T12:36:00Z,30.0600,-84.2910,10.0,1.02,12.34,1.86,'1111122,1111122,1111122' 
COMPS,ioos:station:USF.COMPS:SHP:1,2017-04-01T12:42:00Z,30.0600,-84.2910,10.0,0.99,17.53,1.66,'1111122,1111122,1111122' 
COMPS,ioos:station:USF.COMPS:SHP:1,2017-04-01T12:48:00Z,30.0600,-84.2910,10.0,1.09,23.38,2.15,'1111122,1111122,1111122' 
COMPS,ioos:station:USF.COMPS:SHP:1,2017-04-01T12:54:00Z,30.0600,-84.2910,10.0,1.49,12.33,2.25,'1111122,1111122,1111122' 
COMPS,ioos:station:USF.COMPS:SHP:1,2017-04-01T13:00:00Z,30.0600,-84.2910,10.0,1.38,11.11,2.64,'1111122,1111122,1111122' 
COMPS,ioos:station:USF.COMPS:SHP:1,2017-04-01T13:06:00Z,30.0600,-84.2910,10.0,1.73,8.68,2.54,'1111122,1111122,1111122' 
COMPS,ioos:station:USF.COMPS:SHP:1,2017-04-01T13:12:00Z,30.0600,-84.2910,10.0,1.75,7.68,2.45,'1111122,1111122,1111122' 
COMPS,ioos:station:USF.COMPS:SHP:1,2017-04-01T13:18:00Z,30.0600,-84.2910,10.0,1.81,13.3,2.74,'1111122,1111122,1111122' 
COMPS,ioos:station:USF.COMPS:SHP:1,2017-04-01T13:24:00Z,30.0600,-84.2910,10.0,1.53,23.8,2.94,'1111122,1111122,1111122' 
COMPS,ioos:station:USF.COMPS:SHP:1,2017-04-01T13:30:00Z,30.0600,-84.2910,10.0,1.83,20.95,3.13,'1111122,1111122,1111122' 
COMPS,ioos:station:USF.COMPS:SHP:1,2017-04-01T13:36:00Z,30.0600,-84.2910,10.0,1.73,38.2,3.43,'1111122,1111122,1111122' 
COMPS,ioos:station:USF.COMPS:SHP:1,2017-04-01T13:42:00Z,30.0600,-84.2910,10.0,1.84,43.4,3.03,'1111122,1111122,1111122' 
COMPS,ioos:station:USF.COMPS:SHP:1,2017-04-01T13:48:00Z,30.0600,-84.2910,10.0,1.54,46.18,3.33,'1111122,1111122,1111122' 
COMPS,ioos:station:USF.COMPS:SHP:1,2017-04-01T13:54:00Z,30.0600,-84.2910,10.0,1.49,44.11,2.84,'1111122,1111122,1111122' 
COMPS,ioos:station:USF.COMPS:SHP:1,2017-04-01T14:00:00Z,30.0600,-84.2910,10.0,1.64,41.2,3.82,'1111122,1111122,1111122' 
COMPS,ioos:station:USF.COMPS:SHP:1,2017-04-01T14:06:00Z,30.0600,-84.2910,10.0,2.17,45.35,4.21,'1111122,1111122,1111122' 
COMPS,ioos:station:USF.COMPS:SHP:1,2017-04-01T14:12:00Z,30.0600,-84.2910,10.0,2.01,42.31,4.99,'1111122,1111122,1111122' 
COMPS,ioos:station:USF.COMPS:SHP:1,2017-04-01T14:18:00Z,30.0600,-84.2910,10.0,1.48,48.0,3.52,'1111122,1111122,1111122' 
COMPS,ioos:station:USF.COMPS:SHP:1,2017-04-01T14:24:00Z,30.0600,-84.2910,10.0,0.98,41.39,2.64,'1111122,1111122,1111122' 
COMPS,ioos:station:USF.COMPS:SHP:1,2017-04-01T14:30:00Z,30.0600,-84.2910,10.0,1.64,41.28,3.03,'1111122,1111122,1111122' 
COMPS,ioos:station:USF.COMPS:SHP:1,2017-04-01T14:36:00Z,30.0600,-84.2910,10.0,1.42,59.55,2.54,'1111122,1111122,1111122' 
COMPS,ioos:station:USF.COMPS:SHP:1,2017-04-01T14:42:00Z,30.0600,-84.2910,10.0,1.57,69.88,3.33,'1111122,1111122,1111122' 
COMPS,ioos:station:USF.COMPS:SHP:1,2017-04-01T14:48:00Z,30.0600,-84.2910,10.0,1.28,63.92,2.94,'1111122,1111122,1111122' 
COMPS,ioos:station:USF.COMPS:SHP:1,2017-04-01T14:54:00Z,30.0600,-84.2910,10.0,1.4,73.61,3.13,'1111122,1111122,1111122' 
COMPS,ioos:station:USF.COMPS:SHP:1,2017-04-01T15:00:00Z,30.0600,-84.2910,10.0,1.11,98.53,2.84,'1111122,1111122,1111122' 
COMPS,ioos:station:USF.COMPS:SHP:1,2017-04-01T15:06:00Z,30.0600,-84.2910,10.0,1.81,106.08,2.94,'1111122,1111122,1111122' 
COMPS,ioos:station:USF.COMPS:SHP:1,2017-04-01T15:12:00Z,30.0600,-84.2910,10.0,1.7,101.96,2.64,'1111122,1111122,1111122' 
COMPS,ioos:station:USF.COMPS:SHP:1,2017-04-01T15:18:00Z,30.0600,-84.2910,10.0,1.82,113.01,3.33,'1111122,1111122,1111122' 
COMPS,ioos:station:USF.COMPS:SHP:1,2017-04-01T15:24:00Z,30.0600,-84.2910,10.0,2.48,127.32,2.94,'1111122,1111122,1111122' 
COMPS,ioos:station:USF.COMPS:SHP:1,2017-04-01T15:30:00Z,30.0600,-84.2910,10.0,2.57,147.07,3.03,'1111122,1111122,1111122' 
COMPS,ioos:station:USF.COMPS:SHP:1,2017-04-01T15:36:00Z,30.0600,-84.2910,10.0,2.35,142.85,3.03,'1111122,1111122,1111122' 
COMPS,ioos:station:USF.COMPS:SHP:1,2017-04-01T15:42:00Z,30.0600,-84.2910,10.0,2.49,144.24,2.84,'1111122,1111122,1111122' 
COMPS,ioos:station:USF.COMPS:SHP:1,2017-04-01T15:48:00Z,30.0600,-84.2910,10.0,2.99,147.36,3.52,'1111122,1111122,1111122' 
COMPS,ioos:station:USF.COMPS:SHP:1,2017-04-01T15:54:00Z,30.0600,-84.2910,10.0,3.28,142.64,3.72,'1111122,1111122,1111122' 
COMPS,ioos:station:USF.COMPS:SHP:1,2017-04-01T16:00:00Z,30.0600,-84.2910,10.0,3.56,144.18,4.01,'1111122,1111122,1111122' 
COMPS,ioos:station:USF.COMPS:SHP:1,2017-04-01T16:06:00Z,30.0600,-84.2910,10.0,3.81,148.22,4.41,'1111122,1111122,1111122' 
COMPS,ioos:station:USF.COMPS:SHP:1,2017-04-01T16:12:00Z,30.0600,-84.2910,10.0,4.09,147.94,4.8,'1111122,1111122,1111122' 
COMPS,ioos:station:USF.COMPS:SHP:1,2017-04-01T16:18:00Z,30.0600,-84.2910,10.0,4.01,151.68,4.5,'1111122,1111122,1111122' 
COMPS,ioos:station:USF.COMPS:SHP:1,2017-04-01T16:24:00Z,30.0600,-84.2910,10.0,4.2,155.47,4.9,'1111122,1111122,1111122' 
COMPS,ioos:station:USF.COMPS:SHP:1,2017-04-01T16:30:00Z,30.0600,-84.2910,10.0,4.26,157.95,4.99,'1111122,1111122,1111122' 
COMPS,ioos:station:USF.COMPS:SHP:1,2017-04-01T16:36:00Z,30.0600,-84.2910,10.0,4.01,166.49,4.7,'1111122,1111122,1111122' 
COMPS,ioos:station:USF.COMPS:SHP:1,2017-04-01T16:42:00Z,30.0600,-84.2910,10.0,3.68,169.64,4.31,'1111122,1111122,1111122' 
COMPS,ioos:station:USF.COMPS:SHP:1,2017-04-01T16:48:00Z,30.0600,-84.2910,10.0,3.6,167.95,4.31,'1111122,1111122,1111122' 
COMPS,ioos:station:USF.COMPS:SHP:1,2017-04-01T16:54:00Z,30.0600,-84.2910,10.0,3.68,170.48,4.5,'1111122,1111122,1111122' 
COMPS,ioos:station:USF.COMPS:SHP:1,2017-04-01T17:00:00Z,30.0600,-84.2910,10.0,3.86,170.47,4.41,'1111122,1111122,1111122' 
COMPS,ioos:station:USF.COMPS:SHP:1,2017-04-01T17:06:00Z,30.0600,-84.2910,10.0,3.89,173.35,4.99,'1111122,1111122,1111122' 
COMPS,ioos:station:USF.COMPS:SHP:1,2017-04-01T17:12:00Z,30.0600,-84.2910,10.0,4.41,170.35,5.29,'1111122,1111122,1111122' 
COMPS,ioos:station:USF.COMPS:SHP:1,2017-04-01T17:18:00Z,30.0600,-84.2910,10.0,4.79,165.56,5.48,'1111122,1111122,1111122' 
COMPS,ioos:station:USF.COMPS:SHP:1,2017-04-01T17:24:00Z,30.0600,-84.2910,10.0,4.99,171.25,5.87,'1111122,1111122,1111122' 
COMPS,ioos:station:USF.COMPS:SHP:1,2017-04-01T17:30:00Z,30.0600,-84.2910,10.0,5.06,167.12,5.78,'1111122,1111122,1111122' 
COMPS,ioos:station:USF.COMPS:SHP:1,2017-04-01T17:36:00Z,30.0600,-84.2910,10.0,5.22,168.91,5.87,'1111122,1111122,1111122' 
COMPS,ioos:station:USF.COMPS:SHP:1,2017-04-01T17:42:00Z,30.0600,-84.2910,10.0,5.27,166.77,6.17,'1111122,1111122,1111122' 
COMPS,ioos:station:USF.COMPS:SHP:1,2017-04-01T17:48:00Z,30.0600,-84.2910,10.0,5.21,167.07,5.87,'1111122,1111122,1111122' 
COMPS,ioos:station:USF.COMPS:SHP:1,2017-04-01T17:54:00Z,30.0600,-84.2910,10.0,5.24,171.21,5.78,'1111122,1111122,1111122' 
COMPS,ioos:station:USF.COMPS:SHP:1,2017-04-01T18:00:00Z,30.0600,-84.2910,10.0,4.7,174.13,6.17,'1111122,1111122,1111122' 
COMPS,ioos:station:USF.COMPS:SHP:1,2017-04-01T18:06:00Z,30.0600,-84.2910,10.0,4.73,177.83,5.87,'1111122,1111122,1111122' 
COMPS,ioos:station:USF.COMPS:SHP:1,2017-04-01T18:12:00Z,30.0600,-84.2910,10.0,4.31,178.43,5.87,'1111122,1111122,1111122' 
COMPS,ioos:station:USF.COMPS:SHP:1,2017-04-01T18:18:00Z,30.0600,-84.2910,10.0,3.95,181.36,6.07,'1111122,1111122,1111122' 
COMPS,ioos:station:USF.COMPS:SHP:1,2017-04-01T18:24:00Z,30.0600,-84.2910,10.0,3.84,182.81,5.58,'1111122,1111122,1111122' 
COMPS,ioos:station:USF.COMPS:SHP:1,2017-04-01T18:30:00Z,30.0600,-84.2910,10.0,4.17,190.18,5.48,'1111122,1111122,1111122' 
COMPS,ioos:station:USF.COMPS:SHP:1,2017-04-01T18:36:00Z,30.0600,-84.2910,10.0,4.61,182.56,5.97,'1111122,1111122,1111122' 
COMPS,ioos:station:USF.COMPS:SHP:1,2017-04-01T18:42:00Z,30.0600,-84.2910,10.0,4.26,183.35,6.17,'1111122,1111122,1111122' 
COMPS,ioos:station:USF.COMPS:SHP:1,2017-04-01T18:48:00Z,30.0600,-84.2910,10.0,4.35,182.1,6.17,'1111122,1111122,1111122' 
COMPS,ioos:station:USF.COMPS:SHP:1,2017-04-01T18:54:00Z,30.0600,-84.2910,10.0,5.02,176.74,6.46,'1111122,1111122,1111122' 
COMPS,ioos:station:USF.COMPS:SHP:1,2017-04-01T19:00:00Z,30.0600,-84.2910,10.0,5.95,170.7,6.95,'1111122,1111122,1111122' 
COMPS,ioos:station:USF.COMPS:SHP:1,2017-04-01T19:06:00Z,30.0600,-84.2910,10.0,6.4,172.34,6.95,'1111122,1111122,1111122' 
COMPS,ioos:station:USF.COMPS:SHP:1,2017-04-01T19:12:00Z,30.0600,-84.2910,10.0,4.94,177.94,6.85,'1111122,1111122,1111122' 
COMPS,ioos:station:USF.COMPS:SHP:1,2017-04-01T19:18:00Z,30.0600,-84.2910,10.0,4.57,186.11,6.46,'1111122,1111122,1111122' 
COMPS,ioos:station:USF.COMPS:SHP:1,2017-04-01T19:24:00Z,30.0600,-84.2910,10.0,4.56,185.51,5.78,'1111122,1111122,1111122' 
COMPS,ioos:station:USF.COMPS:SHP:1,2017-04-01T19:30:00Z,30.0600,-84.2910,10.0,5.04,188.16,6.46,'1111122,1111122,1111122' 